Location: Brno
(49.2000°N, 16.6330°E)
Time: 03:24:21
(UTC+01:00)

ISS - Pass Details

Date: 03 December 2021
Orbit: 413 x 422 km, 51.6° (Epoch: 22 January)

Event Time Altitude Azimuth Distance (km) Brightness Sun altitude
Rises 17:01:53 0° 286° (WNW) 2,386 1.0 -10.2°
Reaches altitude 10° 17:04:00 10° 289° (WNW) 1,518 -0.2 -10.5°
Maximum altitude 17:07:24 69° 13° (NNE) 458 -3.7 -11.0°
Enters shadow 17:10:02 16° 96° (E) 1,214 -2.0 -11.4°
